Tampa, FL

5:18 AM EDT on June 26, 2017 (GMT -0400)
Tampa International

Weather History for KTPA - November, 2012

Change the Weather History Date:

Saturday, November 24, 2012

  Actual Average Record
Temperature  
Mean Temperature 63 °F 67 °F  
Max Temperature 73 °F 76 °F 88 °F (1958)
Min Temperature 52 °F 59 °F 31 °F (1970)
Degree Days  
Heating Degree Days 2 2  
Month to date heating degree days 26 28  
Since 1 July heating degree days 32 32  
Cooling Degree Days 0 4  
Month to date cooling degree days 69 141  
Year to date cooling degree days 3864 3507  
Growing Degree Days 13 (Base 50)    
Moisture  
Dew Point 51 °F    
Average Humidity 69    
Maximum Humidity 93    
Minimum Humidity 44    
Precipitation  
Precipitation 0.00 in 0.05 in 3.11 in (1953)
Month to date precipitation 0.16 1.19  
Year to date precipitation 53.79 43.47  
Sea Level Pressure  
Sea Level Pressure 30.09 in    
Wind  
Wind Speed 5 mph (WNW)    
Max Wind Speed 14 mph    
Max Gust Speed 23 mph    
Visibility 9 miles    
Events      
T = Trace of Precipitation, MM = Missing Value Source: NWS Daily Summary

Daily Weather History Graph

Daily Weather History Graph

Search for Another Location

Airport or City:

Trip Planner

Search our weather history database for the weather conditions in past years. The results will help you decide how hot, cold, wet, or windy it might be!

Date:

Astronomy

Nov. 24, 2012 Rise Set
Actual Time 6:59 AM EST 5:34 PM EST
Civil Twilight 6:33 AM EST 5:59 PM EST
Nautical Twilight 6:05 AM EST 6:28 PM EST
Astronomical Twilight 5:36 AM EST 6:56 PM EST
Moon 3:06 PM EST (11/24) 3:29 AM EST (11/24)
Length of Visible Light 11h 26m
Length of Day
10h 35m
Waxing Gibbous, 87% of the Moon is Illuminated
Nov 24
Waxing Gibbous
Nov 28
Full
Dec 6
Last Quarter
Dec 13
New
Dec 20
First Quarter

Hourly Weather History & Observations

Time (EST) Temp. Dew Point Humidity Pressure Visibility Wind Dir Wind Speed Gust Speed Precip Events Conditions
12:53 AM 59.0 °F 55.9 °F 90% 30.11 in 10.0 mi SW 3.5 mph - N/A   Scattered Clouds
1:53 AM 57.0 °F 54.0 °F 89% 30.10 in 7.0 mi Calm Calm - N/A   Scattered Clouds
2:53 AM 55.9 °F 53.1 °F 90% 30.09 in 8.0 mi Calm Calm - N/A   Scattered Clouds
3:53 AM 55.9 °F 53.1 °F 90% 30.08 in 6.0 mi Calm Calm - N/A   Scattered Clouds
4:53 AM 54.0 °F 51.1 °F 90% 30.07 in 7.0 mi Calm Calm - N/A   Scattered Clouds
5:53 AM 54.0 °F 51.1 °F 90% 30.09 in 7.0 mi Calm Calm - N/A   Scattered Clouds
6:53 AM 55.0 °F 52.0 °F 89% 30.10 in 9.0 mi Calm Calm - N/A   Partly Cloudy
7:53 AM 57.0 °F 54.0 °F 89% 30.12 in 8.0 mi Calm Calm - N/A   Clear
8:53 AM 64.0 °F 57.0 °F 78% 30.12 in 10.0 mi Calm Calm - N/A   Clear
9:53 AM 68.0 °F 57.9 °F 70% 30.13 in 10.0 mi West 4.6 mph - N/A   Partly Cloudy
10:53 AM 69.1 °F 59.0 °F 70% 30.12 in 10.0 mi WSW 5.8 mph - N/A   Mostly Cloudy
11:53 AM 72.0 °F 55.0 °F 55% 30.10 in 10.0 mi North 11.5 mph 17.3 mph N/A   Scattered Clouds
12:53 PM 69.1 °F 55.0 °F 61% 30.06 in 10.0 mi West 12.7 mph - N/A   Scattered Clouds
1:53 PM 72.0 °F 52.0 °F 49% 30.04 in 10.0 mi West 11.5 mph 23.0 mph N/A   Scattered Clouds
2:53 PM 71.1 °F 48.9 °F 45% 30.04 in 10.0 mi NW 11.5 mph - N/A   Scattered Clouds
3:53 PM 68.0 °F 46.9 °F 47% 30.04 in 10.0 mi WNW 12.7 mph 19.6 mph N/A   Scattered Clouds
4:53 PM 64.9 °F 46.9 °F 52% 30.06 in 10.0 mi WNW 10.4 mph 17.3 mph N/A   Scattered Clouds
5:53 PM 60.1 °F 45.0 °F 57% 30.07 in 10.0 mi NW 6.9 mph - N/A   Partly Cloudy
6:53 PM 57.9 °F 45.0 °F 62% 30.09 in 10.0 mi NNW 5.8 mph - N/A   Clear
7:53 PM 55.9 °F 46.0 °F 69% 30.09 in 10.0 mi NNW 4.6 mph - N/A   Clear
8:53 PM 55.0 °F 46.0 °F 72% 30.10 in 10.0 mi NNW 4.6 mph - N/A   Clear
9:53 PM 54.0 °F 46.0 °F 75% 30.12 in 10.0 mi Calm Calm - N/A   Clear
10:53 PM 54.0 °F 46.0 °F 75% 30.12 in 10.0 mi Calm Calm - N/A   Scattered Clouds
11:53 PM 54.0 °F 46.0 °F 75% 30.12 in 10.0 mi North 3.5 mph - N/A   Scattered Clouds